KGRR-WX Weather Reports


Display with metric or nautical units.
time (UTC)temp
F
wind
direction
speed
MPH
gust
MPH
rain 1hr
in
rain 24hr
in
rain mn
in
humidity
%
barometer
mb
20260502233011 48 273 9.0 0.0 0.00 0.00 0.00 34 988.2
20260502231505 48 273 10.0 0.0 0.00 0.00 0.00 34 988.2
20260502230024 48 274 10.0 0.0 0.00 0.00 0.00 34 988.2
20260502224505 48 273 11.0 0.0 0.00 0.00 0.00 35 988.6
20260502223021 48 272 12.0 0.0 0.00 0.00 0.00 33 989.3
20260502221505 48 271 12.0 0.0 0.00 0.00 0.00 33 989.3
20260502220018 49 270 12.0 0.0 0.00 0.00 0.00 33 989.3
20260502214505 49 271 12.0 0.0 0.00 0.00 0.00 34 989.3
20260502213021 49 270 11.0 0.0 0.00 0.00 0.00 37 989.2
20260502211505 49 264 11.0 0.0 0.00 0.00 0.00 37 989.1
20260502210023 49 262 11.0 0.0 0.00 0.00 0.00 37 989.1
20260502204505 49 260 11.0 0.0 0.00 0.00 0.00 33 989.5
20260502203021 49 265 11.0 0.0 0.00 0.00 0.00 33 990.0
20260502201505 49 269 11.0 0.0 0.00 0.00 0.00 33 990.0
20260502200023 49 269 12.0 0.0 0.00 0.00 0.00 33 990.0
20260502194505 48 270 11.0 0.0 0.00 0.00 0.00 32 990.2
20260502193013 48 272 12.0 0.0 0.00 0.00 0.00 32 990.2
20260502191505 49 275 12.0 0.0 0.00 0.00 0.00 32 990.2
20260502190023 48 274 12.0 0.0 0.00 0.00 0.00 32 990.2
20260502184505 48 273 12.0 0.0 0.00 0.00 0.00 43 990.3
20260502183021 47 283 11.0 0.0 0.00 0.00 0.00 43 990.2
20260502181504 47 274 11.0 0.0 0.00 0.00 0.00 43 990.2
20260502163021 46 279 8.0 0.0 0.00 0.00 0.00 40 989.6
20260502161505 45 279 8.0 0.0 0.00 0.00 0.00 40 989.6
20260502151506 43 287 7.0 0.0 0.00 0.00 0.00 50 989.8
20260502123020 35 325 4.0 0.0 0.00 0.00 0.00 81 990.5
20260502121505 34 330 4.0 0.0 0.00 0.00 0.00 81 990.5
20260502114505 32 315 3.0 0.0 0.00 0.00 0.00 84 990.3
20260502113022 32 292 2.0 0.0 0.00 0.00 0.00 87 990.1
20260502111505 31 288 2.0 0.0 0.00 0.00 0.00 87 990.1
20260502110024 31 284 2.0 0.0 0.00 0.00 0.00 87 990.1
20260502104505 31 270 2.0 0.0 0.00 0.00 0.00 86 989.9
20260502103020 31 270 2.0 0.0 0.00 0.00 0.00 89 990.1
20260502101505 31 270 2.0 0.0 0.00 0.00 0.00 89 990.1
20260502091505 31 275 2.0 0.0 0.00 0.00 0.00 89 989.6
20260502071505 31 318 3.0 0.0 0.00 0.00 0.00 78 989.0
20260502070018 32 317 3.0 0.0 0.00 0.00 0.00 78 989.0
20260502064505 32 311 4.0 0.0 0.00 0.00 0.00 73 990.0
20260502063022 32 292 3.0 0.0 0.00 0.00 0.00 76 989.9
20260502061505 32 287 3.0 0.0 0.00 0.00 0.00 76 989.9
20260502060025 32 291 3.0 0.0 0.00 0.00 0.00 76 989.9
20260502054505 33 295 3.0 0.0 0.00 0.00 0.00 72 989.2
20260502053021 33 300 3.0 0.0 0.00 0.00 0.00 74 989.6
20260502051505 33 315 4.0 0.0 0.00 0.00 0.00 74 989.6
20260502050023 33 329 5.0 0.0 0.00 0.00 0.00 74 989.6
20260502044506 34 330 5.0 0.0 0.00 0.00 0.00 70 989.1
20260502043021 34 332 5.0 0.0 0.00 0.00 0.00 72 989.3
20260502041505 34 336 6.0 0.0 0.00 0.00 0.00 72 989.3
20260502040019 34 333 6.0 0.0 0.00 0.00 0.00 72 989.3
20260502034505 34 327 6.0 0.0 0.00 0.00 0.00 63 988.9
20260502033021 35 333 4.0 0.0 0.00 0.00 0.00 66 988.3
20260502031505 35 339 6.0 0.0 0.00 0.00 0.00 66 988.3
20260502030023 35 332 7.0 0.0 0.00 0.00 0.00 66 988.3
20260502024505 36 320 6.0 0.0 0.00 0.00 0.00 62 987.9
20260502023020 36 321 7.0 0.0 0.00 0.00 0.00 64 988.7
20260502021505 36 314 8.0 0.0 0.00 0.00 0.00 64 988.7
20260502020018 37 308 8.0 0.0 0.00 0.00 0.00 64 988.7
20260502014505 37 304 8.0 0.0 0.00 0.00 0.00 63 988.7
20260502013019 38 300 7.0 0.0 0.00 0.00 0.00 63 988.7
20260502011505 38 293 7.0 0.0 0.00 0.00 0.00 63 988.7
20260502010015 39 286 7.0 0.0 0.00 0.00 0.00 63 988.7
20260502004504 39 285 7.0 0.0 0.00 0.00 0.00 54 989.1
20260502003020 40 317 7.0 0.0 0.00 0.00 0.00 56 989.7
20260502001505 41 310 8.0 0.0 0.00 0.00 0.00 56 989.7
20260502000023 41 308 9.0 0.0 0.00 0.00 0.00 56 989.7
20260501234505 42 304 9.0 0.0 0.00 0.00 0.00 51 988.0